[[{"header":{"parameterUnit":"m.s-1","parameterCategory":2,"la1":30.2991,"la2":30.254,"lo1":-89.0895,"lo2":-89.0444,"dy":0.0017,"dx":0.0017,"nx":28,"ny":28,"refTime":"2025-04-25T09:00:00:Z","depth":"0","parameterNumber":2,"parameterNumberName":"U-component_of_CURRENTS"},"data":[0,0,0,0,0,0,0,0,0,0,0,0,0,0,0,0,0,0,0,0,0,0,0,0,0,0,0,0,0,0,0,0,0,0,0,0,0,0,0,0,0,0,0,0,0,0,0,0,0,0,0,0,0,0,0,0,0,0,0.2871,0.2871,0,0.2937,0.2938,0.2939,0.2948,0.2947,0.2947,0.2946,0.3073,0.3077,0.3081,0,0,0,0,0,0,0,0,0,0,0,0,0,0.2822,0.2823,0.2871,0.2871,0.2872,0.2937,0.2938,0.2939,0.2948,0.2947,0.2947,0.2946,0.3072,0.3076,0.3081,0,0,0,0,0,0,0,0,0,0,0,0,0,0.2861,0.2823,0.287,0.2885,0.2887,0.2937,0.2938,0.2939,0.2948,0.2947,0.2946,0.2945,0.307,0.3076,0.3082,0.3137,0,0,0.31,0.3102,0,0,0,0,0,0,0,0,0.2859,0.2863,0.2882,0.2884,0.2886,0.2934,0.2968,0.3008,0.2948,0.2925,0.2946,0.2945,0.3033,0.3042,0.3055,0.3143,0.3148,0.31,0.3104,0.3107,0.3108,0,0,0,0,0,0,0,0.2856,0.286,0.2897,0.2883,0.2885,0.2912,0.2916,0.2976,0.2984,0.2927,0.2927,0.2936,0.3034,0.3049,0.3058,0.315,0.31,0.3105,0.3109,0.3111,0.3355,0.3357,0,0,0,0,0,0,0.2846,0.2858,0.2895,0.2899,0.287,0.2914,0.2918,0.2919,0.2982,0.299,0.2936,0.2936,0.304,0.3051,0.3063,0.3186,0.3106,0.3112,0.3115,0.3352,0.3355,0.3358,0,0,0,0,0,0,0.2844,0.2848,0.2892,0.288,0.2888,0.2915,0.2917,0.2921,0.2936,0.2989,0.2998,0.2947,0.3039,0.3055,0.3143,0.3189,0.3115,0.312,0.3348,0.3353,0.3357,0.3398,0,0,0,0,0,0,0.2842,0.2847,0.2847,0.2879,0.2888,0.2926,0.2918,0.2923,0.2943,0.2943,0.3002,0.3012,0.304,0.3134,0.3149,0.3196,0.3125,0.3345,0.335,0.3355,0.3393,0.3403,0.3412,0,0,0,0,0,0.284,0.2844,0.2847,0.2852,0.2886,0.2927,0.2934,0.295,0.2944,0.2959,0.3014,0.301,0.3178,0.3141,0.3158,0.3208,0.3342,0.3349,0.3355,0.3389,0.3401,0.3412,0,0,0,0,0,0,0.2824,0.2846,0.285,0.2859,0.2892,0.2928,0.2944,0.2954,0.3006,0.3011,0.3051,0.3068,0.3167,0.3185,0.3143,0.3296,0.3259,0.3269,0.3279,0.3291,0.33,0.3298,0.313,0,0,0,0,0,0.282,0.2828,0.2859,0.2869,0.2885,0.2915,0.2933,0.2947,0.2995,0.3014,0.3057,0.3121,0.3208,0.3244,0.3313,0.3393,0.3413,0.3437,0.3446,0.3454,0.3466,0.3539,0.3556,0.338,0.338,0.338,0,0,0.2816,0.2831,0.2835,0.2867,0.2892,0.2927,0.2924,0.2956,0.3001,0.3025,0.31,0.3159,0.324,0.334,0.3383,0.3357,0.3516,0.3462,0.3468,0.3477,0.3548,0.3564,0.3579,0.3384,0.3384,0.3383,0,0,0.2819,0.2828,0.2838,0.287,0.2909,0.2936,0.2945,0.2989,0.3024,0.3106,0.3151,0.3236,0.3337,0.3413,0.3465,0.357,0.357,0.3589,0.3629,0.37,0.3714,0.3727,0.3769,0.3786,0.3584,0.3585,0.3585,0,0.2815,0.2832,0.2851,0.2879,0.2909,0.294,0.2973,0.3026,0.3095,0.315,0.3134,0.3329,0.3379,0.3535,0.357,0.3591,0.3619,0.3574,0.371,0.3723,0.3735,0.3776,0.3793,0.3587,0.3587,0.3587,0.3586,0,0.2832,0.2852,0.2867,0.2911,0.2947,0.2983,0.3051,0.3104,0.3144,0.3204,0.335,0.343,0.3541,0.3577,0.3608,0.3741,0.3728,0.3716,0.3671,0.3755,0.3793,0.381,0.3591,0.359,0.3589,0.3589,0,0,0.2799,0.2864,0.2867,0.2892,0.2968,0.2994,0.3093,0.3194,0.3273,0.3351,0.3464,0.3609,0.3643,0.3706,0.3758,0.3817,0.3921,0.3801,0.3803,0.3826,0.4064,0.4021,0.4035,0.3929,0.3932,0.3935,0.4052,0,0.2807,0.2848,0.2892,0.2947,0.2976,0.3052,0.314,0.3241,0.3342,0.3461,0.3574,0.3702,0.3699,0.3761,0.3827,0.3911,0.3971,0.389,0.3995,0.3998,0.3936,0.4056,0.3888,0.3976,0.4069,0.4071,0.4073,0,0.2804,0.2834,0.2879,0.2965,0.2987,0.303,0.3173,0.3258,0.345,0.3543,0.3686,0.3777,0.3922,0.3884,0.4053,0.4001,0.404,0.408,0.4085,0.4044,0.3989,0.3911,0.4004,0.3914,0.41,0.4098,0.4096,0,0.2749,0.2824,0.2853,0.2882,0.2988,0.3035,0.3098,0.3274,0.3371,0.3596,0.3687,0.3877,0.3958,0.4058,0.4145,0.411,0.4302,0.4258,0.4258,0.4254,0.4133,0.4112,0.4136,0.4372,0.4371,0.4371,0.4371,0,0.2732,0.2754,0.2823,0.2837,0.2893,0.298,0.308,0.3205,0.3386,0.3517,0.3702,0.3844,0.4002,0.4131,0.4194,0.429,0.4343,0.43,0.4301,0.4143,0.4123,0.4054,0.4015,0.4375,0.4374,0.4374,0.4373,0,0.2664,0.271,0.2746,0.2836,0.2862,0.2894,0.3024,0.3112,0.3294,0.347,0.3542,0.3822,0.4009,0.4147,0.4325,0.4335,0.4328,0.4456,0.425,0.4226,0.4113,0.4083,0.3976,0.3856,0.4477,0.4477,0.4477,0,0.2633,0.2642,0.2713,0.2727,0.276,0.2821,0.2876,0.3052,0.3159,0.3463,0.3546,0.3793,0.397,0.4218,0.431,0.4427,0.4319,0.4334,0.4241,0.4118,0.4087,0.3915,0.3808,0.4094,0.409,0.4088,0.4086,0,0.2577,0.2599,0.2623,0.2655,0.2689,0.2734,0.2825,0.2892,0.3118,0.3267,0.3496,0.3657,0.3933,0.4032,0.4206,0.4257,0.412,0.4283,0.4217,0.3856,0.3611,0.3489,0.3991,0.4062,0.4065,0.4066,0.4068,0.4069,0.2529,0.2526,0.2555,0.2575,0.261,0.2637,0.2644,0.2773,0.2897,0.3109,0.3336,0.3527,0.3772,0.4003,0.4021,0.3979,0.3956,0.3895,0.3891,0.3745,0.3556,0.4006,0.4039,0.4041,0.4043,0.4044,0.4046,0,0.2463,0.2463,0.2479,0.2492,0.2483,0.2532,0.2604,0.2608,0.2697,0.2944,0.3109,0.3358,0.3493,0.3665,0.3738,0.3617,0.3422,0.3544,0.3263,0.3194,0.3659,0.3571,0.3429,0.3429,0.3429,0.3429,0.3429,0.3429,0.2428,0.2403,0.2403,0.2353,0.2355,0.2311,0.2314,0.2358,0.2491,0.2659,0.282,0.3008,0.3344,0.3543,0.3475,0.3374,0.31,0.2963,0.2971,0.3316,0.3346,0.3376,0.3284,0.3084,0.3083,0.2331,0.2326,0.2322]},{"header":{"parameterUnit":"m.s-1","parameterCategory":2,"la1":30.2991,"la2":30.254,"lo1":-89.0895,"lo2":-89.0444,"dy":0.0017,"dx":0.0017,"nx":28,"ny":28,"refTime":"2025-04-25T09:00:00:Z","depth":"0","parameterNumber":3,"parameterNumberName":"V-component_of_CURRENTS"},"data":[0,0,0,0,0,0,0,0,0,0,0,0,0,0,0,0,0,0,0,0,0,0,0,0,0,0,0,0,0,0,0,0,0,0,0,0,0,0,0,0,0,0,0,0,0,0,0,0,0,0,0,0,0,0,0,0,0,0,0.0081,0.008,0,-0.0015,-0.0016,-0.0017,-0.0073,-0.0073,-0.0073,-0.0073,-0.0157,-0.0159,-0.0162,0,0,0,0,0,0,0,0,0,0,0,0,0,0.0134,0.0134,0.0081,0.008,0.0079,-0.0015,-0.0016,-0.0018,-0.0073,-0.0073,-0.0073,-0.0073,-0.0157,-0.0159,-0.0162,0,0,0,0,0,0,0,0,0,0,0,0,0,0.008,0.0134,0.0081,0.0041,0.0037,-0.0014,-0.0016,-0.0018,-0.0073,-0.0073,-0.0073,-0.0073,-0.0156,-0.0159,-0.0162,-0.0182,0,0,-0.0172,-0.0174,0,0,0,0,0,0,0,0,0.0084,0.0078,0.0048,0.0044,0.0039,-0.003,-0.0028,-0.0072,-0.0073,-0.0033,-0.0073,-0.0073,-0.0112,-0.0119,-0.014,-0.0186,-0.0189,-0.0173,-0.0175,-0.0176,-0.0177,0,0,0,0,0,0,0,0.0087,0.0082,0.0041,0.0047,0.0042,0.0001,-0.0006,-0.0037,-0.0073,-0.0037,-0.004,-0.0048,-0.0115,-0.0137,-0.0143,-0.0191,-0.0173,-0.0176,-0.0178,-0.0179,-0.0249,-0.0249,0,0,0,0,0,0,0.0108,0.0086,0.0044,0.0038,0.0064,0.0001,-0.0008,-0.001,-0.0073,-0.0082,-0.0048,-0.005,-0.0131,-0.0139,-0.0146,-0.0148,-0.0176,-0.0179,-0.0181,-0.0249,-0.0249,-0.0249,0,0,0,0,0,0,0.0109,0.0105,0.0048,0.0061,0.0051,0.0,-0.0002,-0.0011,-0.0029,-0.0081,-0.009,-0.0054,-0.0132,-0.0141,-0.0166,-0.0152,-0.0181,-0.0184,-0.0249,-0.0249,-0.0249,-0.0168,0,0,0,0,0,0,0.0111,0.0106,0.0111,0.0063,0.0051,0.0028,-0.0002,-0.0013,-0.0032,-0.0036,-0.0089,-0.0098,-0.0132,-0.0161,-0.0169,-0.0157,-0.0186,-0.0249,-0.0249,-0.0249,-0.017,-0.0165,-0.016,0,0,0,0,0,0.0114,0.0126,0.0112,0.0107,0.006,0.0029,0.0019,-0.0019,-0.0032,-0.0036,-0.0071,-0.0096,-0.0165,-0.0163,-0.0173,-0.0162,-0.025,-0.0249,-0.0249,-0.0173,-0.0166,-0.016,0,0,0,0,0,0,0.0149,0.012,0.0104,0.0106,0.0074,0.0021,0.0016,-0.0012,-0.0045,-0.0045,-0.0095,-0.0106,-0.0124,-0.0156,-0.0153,-0.0183,-0.0211,-0.0213,-0.015,-0.0144,-0.0139,-0.0113,-0.0189,0,0,0,0,0,0.0161,0.0164,0.0123,0.0124,0.0115,0.0066,0.0049,0.0024,-0.0011,-0.0027,-0.0065,-0.0103,-0.0133,-0.0147,-0.0182,-0.0196,-0.0216,-0.0197,-0.0191,-0.0186,-0.0174,-0.0197,-0.0192,-0.0248,-0.0248,-0.0248,0,0,0.0174,0.0159,0.0159,0.0132,0.0106,0.0101,0.0056,0.0039,0.0034,-0.0029,-0.0044,-0.0086,-0.0133,-0.0151,-0.0161,-0.0174,-0.018,-0.0186,-0.0181,-0.0171,-0.0196,-0.0191,-0.0186,-0.0248,-0.0248,-0.0248,0,0,0.0208,0.0191,0.0207,0.0188,0.0159,0.013,0.0131,0.0084,0.0064,0.0038,-0.0003,-0.0032,-0.0086,-0.0112,-0.0133,-0.0119,-0.0152,-0.0133,-0.0082,-0.0105,-0.01,-0.0096,-0.0103,-0.01,-0.0128,-0.0128,-0.0128,0,0.0225,0.024,0.0205,0.0214,0.0209,0.0151,0.0166,0.0135,0.0084,0.008,0.0046,-0.0019,-0.0065,-0.0073,-0.0075,-0.0104,-0.0119,-0.0099,-0.0095,-0.0092,-0.0089,-0.0098,-0.0096,-0.0124,-0.0125,-0.0125,-0.0125,0,0.027,0.028,0.0289,0.0285,0.0272,0.0274,0.0234,0.0219,0.0184,0.0154,0.0132,0.0063,0.003,0.0005,-0.0035,-0.0034,-0.0051,-0.0085,-0.0105,-0.0078,-0.009,-0.0089,-0.0118,-0.012,-0.0121,-0.0122,0,0,0.0316,0.0322,0.0325,0.0342,0.0314,0.0312,0.0308,0.0294,0.0311,0.0243,0.0258,0.0182,0.0146,0.0119,0.0067,0.0038,0.0035,-0.0011,-0.0014,-0.0005,-0.0,-0.0004,-0.0004,0.0002,0.0002,0.0002,-0.0011,0,0.0363,0.0408,0.0391,0.043,0.0451,0.0408,0.041,0.039,0.0366,0.0364,0.0292,0.0277,0.019,0.0179,0.0137,0.0067,0.0039,0.0043,-0.0039,-0.0041,-0.0037,-0.0003,0.0007,-0.0004,-0.0011,-0.0011,-0.0011,0,0.0416,0.0441,0.0492,0.0516,0.0521,0.0527,0.0543,0.054,0.0518,0.0505,0.0476,0.0415,0.0369,0.0284,0.0185,0.0193,0.0103,0.0038,0.0036,0.0006,-0.0043,-0.0037,-0.0003,-0.0182,-0.001,-0.001,-0.001,0,0.0476,0.0513,0.0561,0.0567,0.0578,0.0591,0.0592,0.0583,0.0612,0.0601,0.062,0.0546,0.0523,0.0402,0.0255,0.0221,0.0151,0.0085,0.0,-0.0001,-0.0021,-0.0024,-0.0159,0.0011,0.0011,0.0011,0.0011,0,0.0537,0.0575,0.0594,0.0619,0.0679,0.0657,0.0718,0.0715,0.0736,0.0801,0.0697,0.0737,0.0548,0.0475,0.0318,0.0184,0.0199,0.0026,-0.0001,0.0008,0.0007,-0.0174,-0.0284,0.0011,0.0011,0.0011,0.0011,0,0.0594,0.0604,0.0664,0.0693,0.0708,0.0749,0.0802,0.0853,0.0856,0.094,0.0941,0.0891,0.0805,0.0615,0.0445,0.0288,0.0043,0.0083,0.0116,0.0092,-0.017,-0.0275,-0.0437,-0.051,-0.0012,-0.0012,-0.0013,0,0.0627,0.0665,0.0726,0.0771,0.0786,0.0844,0.0889,0.0913,0.0986,0.1052,0.1109,0.1047,0.1042,0.0794,0.051,0.0259,0.006,0.0083,0.0002,-0.0167,-0.0304,-0.0391,-0.0447,0.0008,0.0009,0.0009,0.0009,0,0.0695,0.0713,0.0764,0.0858,0.0917,0.0995,0.1068,0.1145,0.1198,0.1277,0.1381,0.1383,0.115,0.0916,0.0557,0.0363,-0.0046,0.0075,-0.0114,-0.0303,-0.0392,-0.0479,0.0005,0.0009,0.0009,0.0009,0.0009,0.0009,0.0745,0.0796,0.0864,0.0955,0.1028,0.1134,0.1218,0.1322,0.1454,0.1596,0.1595,0.1654,0.1283,0.0803,0.0504,-0.0032,-0.0054,-0.0213,-0.0323,-0.0393,-0.0477,0.0022,-0.0,-0.0,-0.0001,-0.0001,-0.0001,0,0.0812,0.0871,0.096,0.1066,0.116,0.1186,0.1334,0.1438,0.1615,0.1764,0.1861,0.1751,0.127,0.077,0.0047,-0.0353,-0.0513,-0.0578,-0.0717,-0.0754,-0.0319,-0.0332,-0.0407,-0.0407,-0.0407,-0.0407,-0.0407,-0.0407,0.085,0.0946,0.0992,0.1157,0.1236,0.1375,0.1466,0.1632,0.1774,0.1973,0.2053,0.2081,0.1715,0.0358,-0.0536,-0.0736,-0.104,-0.1113,-0.1248,-0.098,-0.0955,-0.0931,-0.097,-0.1178,-0.1179,-0.1629,-0.1634,-0.1638]}],[{"header":{"parameterUnit":"m.s-1","parameterCategory":2,"la1":30.2991,"la2":30.254,"lo1":-89.0895,"lo2":-89.0444,"dy":0.0017,"dx":0.0017,"nx":28,"ny":28,"refTime":"2025-04-25T09:00:00:Z","depth":"2","parameterNumber":2,"parameterNumberName":"U-component_of_CURRENTS"},"data":[0,0,0,0,0,0,0,0,0,0,0,0,0,0,0,0,0,0,0,0,0,0,0,0,0,0,0,0,0,0,0,0,0,0,0,0,0,0,0,0,0,0,0,0,0,0,0,0,0,0,0,0,0,0,0,0,0,0,0.2612,0.2612,0,0.2632,0.2632,0.2632,0.262,0.262,0.2619,0.2619,0.2639,0.264,0.2641,0,0,0,0,0,0,0,0,0,0,0,0,0,0.2561,0.2562,0.2611,0.2612,0.2613,0.2632,0.2632,0.2632,0.262,0.262,0.2619,0.2619,0.2639,0.264,0.2641,0,0,0,0,0,0,0,0,0,0,0,0,0,0.2579,0.2562,0.2611,0.2612,0.2612,0.2632,0.2632,0.2632,0.262,0.262,0.2619,0.2619,0.2639,0.264,0.2641,0.2655,0,0,0.2644,0.2645,0,0,0,0,0,0,0,0,0.2578,0.258,0.2611,0.2612,0.2612,0.2626,0.2621,0.2641,0.262,0.2613,0.2619,0.2619,0.2637,0.2639,0.2638,0.2656,0.2657,0.2645,0.2645,0.2646,0.2646,0,0,0,0,0,0,0,0.2577,0.2579,0.2616,0.2612,0.2613,0.2611,0.2612,0.2625,0.2625,0.2614,0.2614,0.2622,0.2637,0.2637,0.2639,0.2658,0.2644,0.2646,0.2646,0.2647,0.2755,0.2757,0,0,0,0,0,0,0.2582,0.2578,0.2615,0.2617,0.2598,0.2612,0.2614,0.2619,0.2624,0.2626,0.2622,0.2621,0.2635,0.2637,0.2639,0.2733,0.2646,0.2647,0.2647,0.2753,0.2755,0.2758,0,0,0,0,0,0,0.2581,0.2585,0.2615,0.2601,0.2605,0.2614,0.262,0.262,0.2629,0.2631,0.2632,0.2632,0.2635,0.2638,0.2672,0.2731,0.2647,0.2648,0.275,0.2754,0.2757,0.2872,0,0,0,0,0,0,0.2579,0.2584,0.259,0.2601,0.2606,0.2636,0.262,0.2621,0.2635,0.2635,0.264,0.2641,0.2635,0.2671,0.2674,0.2731,0.2649,0.2747,0.2752,0.2756,0.2865,0.2879,0.289,0,0,0,0,0,0.2577,0.2586,0.259,0.2595,0.2614,0.2637,0.2639,0.2641,0.2637,0.2646,0.2659,0.2641,0.2699,0.2674,0.2676,0.2735,0.2745,0.2751,0.2755,0.286,0.2876,0.289,0,0,0,0,0,0,0.2563,0.2587,0.2591,0.2606,0.2626,0.2636,0.2647,0.265,0.2666,0.2669,0.2665,0.2668,0.2727,0.2709,0.2681,0.2778,0.2722,0.2727,0.28,0.2815,0.2828,0.2809,0.265,0,0,0,0,0,0.2566,0.2582,0.2603,0.2617,0.2629,0.2641,0.2651,0.2657,0.2673,0.2679,0.2686,0.2705,0.2748,0.2761,0.2784,0.2828,0.2827,0.2868,0.2881,0.2891,0.2879,0.2964,0.2984,0.2774,0.2774,0.2774,0,0,0.2564,0.2581,0.2589,0.2616,0.263,0.2654,0.2645,0.267,0.2695,0.2681,0.2717,0.275,0.277,0.2833,0.2857,0.2824,0.2949,0.2898,0.2907,0.2888,0.2972,0.2992,0.301,0.2777,0.2777,0.2776,0,0,0.2571,0.2586,0.2602,0.2625,0.2657,0.2669,0.2681,0.2704,0.2721,0.2761,0.278,0.2839,0.287,0.2915,0.2939,0.3027,0.3018,0.3044,0.3089,0.3175,0.3193,0.3208,0.3227,0.3243,0.3045,0.3045,0.3045,0,0.2567,0.2592,0.2611,0.2637,0.266,0.268,0.2706,0.273,0.2763,0.2797,0.2781,0.2896,0.291,0.3021,0.3053,0.3057,0.3082,0.3035,0.3193,0.3208,0.3222,0.3237,0.3254,0.3051,0.3051,0.305,0.3049,0,0.2587,0.2612,0.2627,0.2667,0.2693,0.2723,0.2762,0.2794,0.2817,0.2852,0.2957,0.2997,0.3066,0.3099,0.3098,0.3227,0.3204,0.3207,0.3156,0.3251,0.326,0.3275,0.306,0.3058,0.3056,0.3055,0,0,0.2559,0.2627,0.2631,0.2655,0.2715,0.2733,0.2794,0.2858,0.2912,0.2965,0.305,0.3142,0.3182,0.321,0.3251,0.3315,0.3435,0.3304,0.3305,0.3322,0.3593,0.3487,0.3493,0.3486,0.349,0.3493,0.3556,0,0.2568,0.2613,0.2652,0.2698,0.2724,0.2778,0.2831,0.2897,0.2963,0.3048,0.3134,0.3225,0.3225,0.3282,0.3357,0.341,0.3483,0.3414,0.3495,0.3496,0.3394,0.351,0.3256,0.3284,0.357,0.3573,0.3575,0,0.2567,0.26,0.2643,0.2717,0.2735,0.2769,0.2866,0.292,0.3054,0.312,0.3241,0.3307,0.3422,0.341,0.3551,0.3514,0.3564,0.3595,0.3599,0.3464,0.342,0.3237,0.3301,0.36,0.3598,0.3596,0.3594,0,0.2517,0.259,0.2621,0.2646,0.2734,0.2769,0.2818,0.2938,0.3005,0.3173,0.3247,0.3399,0.3474,0.3568,0.3625,0.361,0.3759,0.3745,0.37,0.369,0.3464,0.3429,0.3873,0.3873,0.3873,0.3873,0.3873,0,0.2501,0.2524,0.2598,0.2613,0.2662,0.2734,0.2811,0.2898,0.304,0.3132,0.3279,0.3382,0.3525,0.3622,0.3666,0.3713,0.3801,0.3717,0.3719,0.3494,0.3462,0.372,0.3702,0.3875,0.3875,0.3874,0.3874,0,0.2437,0.2486,0.2524,0.261,0.2636,0.2664,0.2779,0.2843,0.2986,0.3113,0.317,0.3383,0.3501,0.361,0.3755,0.3748,0.3809,0.3818,0.3506,0.347,0.3666,0.3652,0.3758,0.3755,0.3753,0.3751,0.3749,0,0.2408,0.242,0.2497,0.2514,0.255,0.2608,0.2655,0.28,0.288,0.3099,0.3157,0.3335,0.3447,0.3598,0.3633,0.3689,0.3784,0.3478,0.3405,0.3672,0.3664,0.3654,0.3645,0.3146,0.3139,0.3134,0.313,0,0.2354,0.2381,0.2409,0.2448,0.2486,0.2529,0.2608,0.2661,0.2834,0.2939,0.3087,0.319,0.3359,0.3321,0.3408,0.3408,0.3436,0.337,0.3777,0.321,0.31,0.309,0.31,0.3083,0.3088,0.3091,0.3094,0.3095,0.2307,0.2309,0.2346,0.2371,0.2411,0.2433,0.2434,0.2537,0.2621,0.2751,0.2917,0.2983,0.3079,0.3077,0.3015,0.2975,0.3211,0.309,0.3105,0.3125,0.3039,0.2931,0.2863,0.2866,0.2869,0.2871,0.2873,0,0.2239,0.2248,0.227,0.2289,0.2283,0.2336,0.2389,0.2372,0.2414,0.2563,0.2659,0.2516,0.2529,0.2608,0.2488,0.2509,0.2474,0.2404,0.2341,0.2392,0.2437,0.2312,0.1944,0.1941,0.1937,0.1934,0,0,0.2204,0.2185,0.219,0.2147,0.2157,0.2111,0.2105,0.2109,0.2175,0.2185,0.221,0.2433,0.255,0.2205,0.2185,0.2038,0.2187,0.1961,0.272,0.2699,0.2737,0.2862,0.2732,0,0,0,0,0]},{"header":{"parameterUnit":"m.s-1","parameterCategory":2,"la1":30.2991,"la2":30.254,"lo1":-89.0895,"lo2":-89.0444,"dy":0.0017,"dx":0.0017,"nx":28,"ny":28,"refTime":"2025-04-25T09:00:00:Z","depth":"2","parameterNumber":3,"parameterNumberName":"V-component_of_CURRENTS"},"data":[0,0,0,0,0,0,0,0,0,0,0,0,0,0,0,0,0,0,0,0,0,0,0,0,0,0,0,0,0,0,0,0,0,0,0,0,0,0,0,0,0,0,0,0,0,0,0,0,0,0,0,0,0,0,0,0,0,0,0.0006,0.0005,0,-0.0082,-0.0083,-0.0084,-0.0134,-0.0134,-0.0134,-0.0134,-0.0213,-0.0215,-0.0217,0,0,0,0,0,0,0,0,0,0,0,0,0,0.0058,0.0058,0.0006,0.0005,0.0004,-0.0082,-0.0083,-0.0085,-0.0134,-0.0134,-0.0134,-0.0134,-0.0212,-0.0215,-0.0217,0,0,0,0,0,0,0,0,0,0,0,0,0,0.0008,0.0057,0.0006,-0.003,-0.0034,-0.0082,-0.0083,-0.0085,-0.0134,-0.0134,-0.0134,-0.0134,-0.0211,-0.0214,-0.0218,-0.0236,0,0,-0.0227,-0.0228,0,0,0,0,0,0,0,0,0.0011,0.0006,-0.0024,-0.0027,-0.0032,-0.0096,-0.0094,-0.0134,-0.0134,-0.0097,-0.0134,-0.0134,-0.0172,-0.0178,-0.0197,-0.0239,-0.0243,-0.0227,-0.0229,-0.023,-0.0231,0,0,0,0,0,0,0,0.0015,0.0009,-0.003,-0.0025,-0.003,-0.0067,-0.0073,-0.0102,-0.0134,-0.0101,-0.0104,-0.0112,-0.0174,-0.0194,-0.0199,-0.0244,-0.0227,-0.023,-0.0232,-0.0233,-0.0288,-0.0288,0,0,0,0,0,0,0.0032,0.0013,-0.0027,-0.0033,-0.0009,-0.0067,-0.0075,-0.0076,-0.0134,-0.0143,-0.0111,-0.0114,-0.0188,-0.0195,-0.0202,-0.0206,-0.023,-0.0233,-0.0235,-0.0288,-0.0288,-0.0287,0,0,0,0,0,0,0.0034,0.003,-0.0024,-0.0011,-0.0021,-0.0067,-0.0069,-0.0078,-0.0093,-0.0142,-0.0151,-0.0117,-0.0189,-0.0198,-0.0224,-0.0211,-0.0235,-0.0238,-0.0289,-0.0288,-0.0288,-0.0228,0,0,0,0,0,0,0.0036,0.0031,0.0036,-0.001,-0.002,-0.0042,-0.0069,-0.008,-0.0098,-0.0101,-0.015,-0.0158,-0.0189,-0.0219,-0.0227,-0.0215,-0.024,-0.0289,-0.0289,-0.0288,-0.0231,-0.0226,-0.0221,0,0,0,0,0,0.0038,0.0049,0.0036,0.0031,-0.0012,-0.0041,-0.005,-0.0085,-0.0097,-0.01,-0.0135,-0.0156,-0.0219,-0.0221,-0.0231,-0.022,-0.029,-0.0289,-0.0288,-0.0233,-0.0227,-0.0222,0,0,0,0,0,0,0.0071,0.0044,0.0029,0.003,0.0001,-0.0049,-0.0053,-0.0079,-0.011,-0.011,-0.0157,-0.0168,-0.0187,-0.0211,-0.0212,-0.0233,-0.0255,-0.0256,-0.021,-0.0205,-0.02,-0.0174,-0.0243,0,0,0,0,0,0.0082,0.0085,0.0047,0.0048,0.0039,-0.0006,-0.0022,-0.0045,-0.0079,-0.0093,-0.0129,-0.0162,-0.0192,-0.0203,-0.0236,-0.0247,-0.0269,-0.0244,-0.0239,-0.0235,-0.022,-0.0251,-0.0248,-0.0284,-0.0285,-0.0285,0,0,0.0094,0.008,0.008,0.0055,0.0031,0.0026,-0.0016,-0.0031,-0.0037,-0.0096,-0.0112,-0.0152,-0.0193,-0.021,-0.0219,-0.0226,-0.0236,-0.0234,-0.023,-0.0217,-0.025,-0.0247,-0.0243,-0.0284,-0.0284,-0.0284,0,0,0.0124,0.011,0.0124,0.0107,0.008,0.0053,0.0053,0.0009,-0.0009,-0.0034,-0.0076,-0.0103,-0.0151,-0.0175,-0.0193,-0.018,-0.0215,-0.0191,-0.0141,-0.0171,-0.0168,-0.0166,-0.0185,-0.0185,-0.0182,-0.0182,-0.0182,0,0.0139,0.0153,0.0122,0.013,0.0125,0.0072,0.0085,0.0056,0.0007,0.0001,-0.0027,-0.0091,-0.0131,-0.0142,-0.0142,-0.0167,-0.019,-0.0159,-0.0164,-0.0163,-0.0161,-0.0182,-0.0182,-0.0179,-0.0179,-0.0179,-0.018,0,0.018,0.0189,0.0197,0.0194,0.0182,0.0184,0.0146,0.0129,0.0098,0.007,0.0045,-0.0018,-0.0048,-0.007,-0.0106,-0.011,-0.013,-0.016,-0.0176,-0.0154,-0.0177,-0.0179,-0.0174,-0.0175,-0.0176,-0.0177,0,0,0.0219,0.0227,0.023,0.0246,0.022,0.0218,0.021,0.0195,0.0206,0.0146,0.0154,0.0086,0.0054,0.0031,-0.0018,-0.0047,-0.0066,-0.0094,-0.0097,-0.0107,-0.0127,-0.0146,-0.015,-0.0102,-0.0102,-0.0102,-0.0145,0,0.0261,0.0303,0.0288,0.0323,0.0343,0.0302,0.0301,0.0279,0.0254,0.0246,0.0182,0.0165,0.0093,0.0081,0.0039,-0.0037,-0.0068,-0.0051,-0.0151,-0.0153,-0.0169,-0.0152,-0.012,-0.0156,-0.0147,-0.0147,-0.0147,0,0.0308,0.0332,0.0378,0.0401,0.0405,0.0411,0.0417,0.0412,0.0384,0.0368,0.0338,0.0282,0.0236,0.0165,0.0056,0.0068,-0.002,-0.0086,-0.009,-0.0127,-0.0175,-0.0178,-0.016,-0.0151,-0.0151,-0.015,-0.015,0,0.0362,0.0396,0.0441,0.0447,0.0456,0.0467,0.0467,0.0451,0.0472,0.0451,0.0464,0.0389,0.0365,0.0242,0.0096,0.0075,-0.0027,-0.0074,-0.0172,-0.0175,-0.0174,-0.0176,-0.0153,-0.0153,-0.0153,-0.0153,-0.0153,0,0.0416,0.0451,0.0471,0.0495,0.055,0.0529,0.0582,0.0571,0.0581,0.0626,0.0535,0.0553,0.038,0.0292,0.0141,-0.0009,0.0006,-0.0153,-0.0185,-0.0153,-0.0153,-0.0173,-0.0174,-0.0155,-0.0154,-0.0154,-0.0154,0,0.0468,0.0478,0.0534,0.0562,0.0577,0.0614,0.0661,0.0702,0.0696,0.0752,0.075,0.0687,0.0577,0.0394,0.0213,0.0068,-0.0088,-0.0151,-0.0095,-0.0121,-0.0227,-0.0225,-0.0257,-0.0258,-0.0259,-0.026,-0.026,0,0.0498,0.0533,0.0592,0.0633,0.0649,0.0704,0.0744,0.076,0.0817,0.0839,0.0879,0.0793,0.0755,0.0487,0.0223,-0.0028,-0.0077,-0.0174,-0.0217,-0.0208,-0.0237,-0.0234,-0.0231,-0.0192,-0.0192,-0.0192,-0.0192,0,0.0557,0.0575,0.0623,0.071,0.0766,0.0839,0.0903,0.0968,0.0994,0.1041,0.109,0.1059,0.081,0.0574,0.0224,0.005,-0.0134,-0.0183,-0.0181,-0.0172,-0.0151,-0.0178,-0.0176,-0.0192,-0.0192,-0.0192,-0.0192,-0.0192,0.0599,0.0645,0.0708,0.0793,0.0863,0.0958,0.1031,0.1113,0.1211,0.1286,0.1254,0.1221,0.0936,0.0508,0.0195,-0.0133,-0.0124,-0.0245,-0.0243,-0.0242,-0.0228,-0.021,-0.0258,-0.0259,-0.0259,-0.0259,-0.0259,0,0.0651,0.0704,0.0787,0.0884,0.097,0.0999,0.1127,0.1206,0.1331,0.1401,0.144,0.1183,0.0907,0.057,0.0087,-0.0207,-0.0228,-0.0298,-0.0262,-0.026,-0.0258,-0.0245,-0.028,-0.0281,-0.0282,-0.0283,0,0,0.0678,0.0763,0.0805,0.0952,0.1027,0.1148,0.1226,0.1346,0.1429,0.1503,0.1495,0.1446,0.1029,0.0675,0.0275,-0.0005,-0.0064,-0.0057,-0.0006,0.0087,0.0092,-0.0191,-0.0163,0,0,0,0,0]}],[{"header":{"parameterUnit":"m.s-1","parameterCategory":2,"la1":30.2991,"la2":30.254,"lo1":-89.0895,"lo2":-89.0444,"dy":0.0017,"dx":0.0017,"nx":28,"ny":28,"refTime":"2025-04-25T09:00:00:Z","depth":"4","parameterNumber":2,"parameterNumberName":"U-component_of_CURRENTS"},"data":[0,0,0,0,0,0,0,0,0,0,0,0,0,0,0,0,0,0,0,0,0,0,0,0,0,0,0,0,0,0,0,0,0,0,0,0,0,0,0,0,0,0,0,0,0,0,0,0,0,0,0,0,0,0,0,0,0,0,0.1833,0.1834,0,0.1864,0.1864,0.1864,0.1887,0.1888,0.1889,0.1889,0.1846,0.1845,0.1843,0,0,0,0,0,0,0,0,0,0,0,0,0,0.1747,0.1749,0.1833,0.1834,0.1834,0.1864,0.1864,0.1864,0.1887,0.1888,0.1889,0.1889,0.1847,0.1845,0.1843,0,0,0,0,0,0,0,0,0,0,0,0,0,0.1778,0.1749,0.1833,0.1853,0.1855,0.1864,0.1864,0.1864,0.1887,0.1888,0.1889,0.189,0.1848,0.1845,0.1843,0.1808,0,0,0.1835,0.1834,0,0,0,0,0,0,0,0,0.1776,0.178,0.1849,0.1852,0.1854,0.1877,0.1818,0.1843,0.1887,0.187,0.1889,0.189,0.1852,0.1849,0.1847,0.1806,0.1804,0.1834,0.1833,0.1832,0.1831,0,0,0,0,0,0,0,0.1774,0.1779,0.1841,0.185,0.1853,0.1845,0.185,0.1823,0.1851,0.1872,0.1875,0.1885,0.1852,0.185,0.1846,0.1804,0.1835,0.1832,0.1831,0.183,0.1797,0.1797,0,0,0,0,0,0,0.1781,0.1777,0.184,0.1842,0.1822,0.1846,0.1852,0.1865,0.1853,0.1854,0.1884,0.1886,0.1854,0.1849,0.1845,0.1875,0.1832,0.1829,0.1828,0.1796,0.1797,0.1798,0,0,0,0,0,0,0.1779,0.1786,0.1839,0.1813,0.182,0.1847,0.1861,0.1865,0.1901,0.1864,0.1862,0.1921,0.1854,0.1849,0.183,0.1871,0.1828,0.1826,0.1795,0.1796,0.1797,0.1889,0,0,0,0,0,0,0.1776,0.1785,0.1812,0.1814,0.1822,0.1869,0.1861,0.1865,0.1905,0.1909,0.1894,0.1889,0.1855,0.1834,0.1828,0.1867,0.1824,0.1794,0.1796,0.1797,0.1885,0.1893,0.19,0,0,0,0,0,0.1773,0.1798,0.1813,0.1822,0.1853,0.1871,0.1874,0.1892,0.1907,0.1927,0.1901,0.1891,0.1839,0.1832,0.1824,0.1864,0.1794,0.1795,0.1797,0.1882,0.1891,0.1899,0,0,0,0,0,0,0.177,0.1803,0.1819,0.1854,0.1876,0.1877,0.1905,0.1916,0.1914,0.1925,0.1885,0.1877,0.1891,0.1852,0.1846,0.1857,0.1821,0.1821,0.1888,0.1896,0.1904,0.1917,0.1822,0,0,0,0,0,0.1784,0.1819,0.1839,0.1872,0.1889,0.1906,0.1923,0.1937,0.1932,0.1937,0.1924,0.1902,0.1885,0.1871,0.1856,0.1842,0.1842,0.1866,0.1873,0.188,0.1884,0.1885,0.1893,0.1803,0.1803,0.1803,0,0,0.1793,0.1818,0.1839,0.1876,0.1897,0.1922,0.1918,0.1959,0.1976,0.1928,0.1951,0.1939,0.1891,0.1889,0.1891,0.1862,0.1917,0.1882,0.1888,0.1889,0.1888,0.1896,0.1904,0.1804,0.1803,0.1803,0,0,0.1813,0.1854,0.1884,0.1909,0.1955,0.1962,0.1985,0.2009,0.2022,0.203,0.2009,0.2009,0.1981,0.1954,0.1932,0.1965,0.1969,0.1977,0.2008,0.201,0.2018,0.2024,0.2092,0.2103,0.1964,0.1964,0.1964,0,0.1825,0.1865,0.1895,0.1927,0.1956,0.1986,0.2018,0.2029,0.2044,0.2046,0.2052,0.2042,0.2009,0.1997,0.2006,0.1985,0.2007,0.1982,0.2021,0.2027,0.2033,0.2099,0.2111,0.1968,0.1968,0.1967,0.1967,0,0.1852,0.19,0.1923,0.1975,0.2006,0.2045,0.2067,0.2096,0.2121,0.2122,0.2149,0.2116,0.2105,0.2105,0.2058,0.2084,0.2101,0.2047,0.2004,0.2048,0.2116,0.2126,0.1975,0.1973,0.1972,0.1971,0,0,0.1833,0.1926,0.1937,0.1973,0.2041,0.2061,0.2102,0.2128,0.2151,0.218,0.2204,0.2188,0.2198,0.2174,0.2149,0.2139,0.2208,0.2111,0.2109,0.219,0.2274,0.2138,0.2137,0.2163,0.2164,0.2165,0.2327,0,0.1848,0.1913,0.1959,0.2025,0.2058,0.2107,0.2139,0.2169,0.2191,0.2218,0.2216,0.2239,0.2216,0.2232,0.2223,0.2205,0.2232,0.2173,0.2208,0.2211,0.2091,0.214,0.2168,0.2335,0.2338,0.2339,0.2341,0,0.1847,0.1897,0.1965,0.2051,0.2073,0.2119,0.218,0.2213,0.2247,0.2271,0.2303,0.2308,0.233,0.2296,0.233,0.23,0.2304,0.2294,0.2298,0.2138,0.209,0.2266,0.236,0.2358,0.2357,0.2355,0.2354,0,0.1794,0.1894,0.1952,0.1984,0.2083,0.2126,0.2181,0.2229,0.226,0.2319,0.2351,0.2384,0.2418,0.2421,0.2409,0.2383,0.2441,0.2395,0.2301,0.2296,0.2333,0.2323,0.243,0.243,0.243,0.2429,0.2429,0,0.1767,0.1817,0.1941,0.197,0.2041,0.2119,0.2186,0.2236,0.2312,0.2342,0.2388,0.2416,0.2445,0.2468,0.2455,0.2416,0.2491,0.2327,0.2312,0.2376,0.2368,0.2344,0.2332,0.2435,0.2434,0.2433,0.2432,0,0.1691,0.1775,0.1848,0.1974,0.2018,0.2068,0.2201,0.2232,0.2326,0.2372,0.2405,0.247,0.2508,0.2531,0.2548,0.2466,0.2444,0.2415,0.2549,0.2536,0.2308,0.2299,0.2347,0.2343,0.2339,0.2337,0.2334,0,0.1654,0.1688,0.1836,0.188,0.1948,0.2043,0.2097,0.2223,0.2258,0.2378,0.2384,0.2469,0.2492,0.2434,0.2467,0.2476,0.2426,0.2428,0.2306,0.2311,0.2293,0.2289,0.2284,0.2329,0.2328,0.2328,0.2327,0,0.1582,0.1654,0.1715,0.181,0.1887,0.1954,0.205,0.2069,0.2196,0.2306,0.2308,0.2309,0.235,0.2354,0.2375,0.2361,0.242,0.2394,0.2399,0.2284,0.2291,0.2275,0.2274,0.2316,0.2317,0.2318,0.2319,0,0.1533,0.1557,0.165,0.1715,0.1806,0.1831,0.1897,0.1948,0.2008,0.2148,0.2153,0.2231,0.2333,0.2299,0.231,0.2291,0.2252,0.2162,0.2179,0.2192,0.2054,0.2034,0.1977,0,0,0,0,0,0.1471,0.1485,0.1544,0.1605,0.1688,0.1735,0.1845,0.191,0.2041,0.1997,0.2071,0.2097,0.2103,0.2152,0.21,0.2248,0.2264,0.2178,0.217,0.2253,0.2266,0.211,0,0,0,0,0,0,0.1428,0.1482,0.1502,0.1497,0.1513,0.1581,0.1641,0.1728,0.1718,0.1857,0.1875,0.1981,0.2023,0.2111,0.2061,0.2078,0.2033,0.225,0.2245,0.2246,0.2258,0.2268,0.2112,0,0,0,0,0]},{"header":{"parameterUnit":"m.s-1","parameterCategory":2,"la1":30.2991,"la2":30.254,"lo1":-89.0895,"lo2":-89.0444,"dy":0.0017,"dx":0.0017,"nx":28,"ny":28,"refTime":"2025-04-25T09:00:00:Z","depth":"4","parameterNumber":3,"parameterNumberName":"V-component_of_CURRENTS"},"data":[0,0,0,0,0,0,0,0,0,0,0,0,0,0,0,0,0,0,0,0,0,0,0,0,0,0,0,0,0,0,0,0,0,0,0,0,0,0,0,0,0,0,0,0,0,0,0,0,0,0,0,0,0,0,0,0,0,0,0.0024,0.0024,0,-0.0036,-0.0037,-0.0037,-0.0071,-0.0071,-0.0071,-0.0071,-0.0096,-0.0097,-0.0098,0,0,0,0,0,0,0,0,0,0,0,0,0,0.0063,0.0063,0.0024,0.0024,0.0023,-0.0036,-0.0037,-0.0038,-0.0071,-0.0071,-0.0071,-0.0071,-0.0096,-0.0097,-0.0098,0,0,0,0,0,0,0,0,0,0,0,0,0,0.0029,0.0063,0.0025,-0.0,-0.0003,-0.0036,-0.0037,-0.0038,-0.0071,-0.0071,-0.0071,-0.0071,-0.0096,-0.0097,-0.0098,-0.0102,0,0,-0.0101,-0.0101,0,0,0,0,0,0,0,0,0.0031,0.0027,0.0004,0.0001,-0.0002,-0.0046,-0.0033,-0.0057,-0.0071,-0.0045,-0.0071,-0.0071,-0.0076,-0.0079,-0.0091,-0.0103,-0.0104,-0.0101,-0.0101,-0.0102,-0.0102,0,0,0,0,0,0,0,0.0033,0.003,0.0,0.0003,-0.0,-0.0025,-0.003,-0.0038,-0.0059,-0.0048,-0.005,-0.0056,-0.0077,-0.009,-0.0091,-0.0104,-0.0101,-0.0101,-0.0102,-0.0102,-0.0087,-0.0086,0,0,0,0,0,0,0.0044,0.0032,0.0002,-0.0002,0.0015,-0.0025,-0.0031,-0.0032,-0.006,-0.0064,-0.0056,-0.0058,-0.0088,-0.009,-0.0092,-0.0073,-0.0102,-0.0103,-0.0103,-0.0088,-0.0087,-0.0086,0,0,0,0,0,0,0.0045,0.0042,0.0005,0.0014,0.0007,-0.0026,-0.0027,-0.0033,-0.0043,-0.0067,-0.0071,-0.006,-0.0088,-0.0091,-0.0092,-0.0075,-0.0103,-0.0104,-0.0089,-0.0088,-0.0086,-0.005,0,0,0,0,0,0,0.0047,0.0043,0.0047,0.0015,0.0007,-0.0008,-0.0027,-0.0034,-0.0047,-0.0049,-0.0071,-0.0074,-0.0089,-0.0091,-0.0093,-0.0077,-0.0105,-0.009,-0.0089,-0.0087,-0.0053,-0.0048,-0.0044,0,0,0,0,0,0.0048,0.0056,0.0048,0.0044,0.0013,-0.0008,-0.0014,-0.0038,-0.0047,-0.0048,-0.006,-0.0073,-0.0081,-0.0091,-0.0094,-0.0078,-0.0091,-0.0089,-0.0087,-0.0055,-0.0049,-0.0044,0,0,0,0,0,0,0.0072,0.0053,0.0042,0.0043,0.0022,-0.0013,-0.0015,-0.0034,-0.0047,-0.0045,-0.0068,-0.0071,-0.0066,-0.0074,-0.0085,-0.0066,-0.0085,-0.0084,-0.006,-0.0054,-0.005,-0.0045,-0.0105,0,0,0,0,0,0.008,0.0083,0.0055,0.0056,0.0049,0.0018,0.0007,-0.001,-0.0027,-0.0034,-0.0051,-0.0059,-0.006,-0.0059,-0.0067,-0.0058,-0.0085,-0.0046,-0.0042,-0.0038,-0.0035,-0.0057,-0.0054,-0.0079,-0.0079,-0.0079,0,0,0.0089,0.0079,0.008,0.0062,0.0045,0.0042,0.0011,0.0,-0.0001,-0.0032,-0.0035,-0.0048,-0.0055,-0.0048,-0.0045,-0.0051,-0.0047,-0.0035,-0.0032,-0.0031,-0.0054,-0.0052,-0.005,-0.0077,-0.0078,-0.0078,0,0,0.0112,0.0101,0.0113,0.01,0.0081,0.0062,0.0062,0.0031,0.002,0.0013,-0.0004,-0.0006,-0.0016,-0.0017,-0.0017,0.001,-0.0027,0.0012,0.0043,0.0021,0.0023,0.0024,-0.0021,-0.0024,0.002,0.002,0.002,0,0.0123,0.0134,0.0111,0.0118,0.0115,0.0076,0.0087,0.0069,0.004,0.004,0.0021,0.0012,0.0001,0.0019,0.0027,0.002,-0.0008,0.002,0.0026,0.0026,0.0027,-0.0019,-0.0023,0.0022,0.0022,0.0021,0.0021,0,0.0152,0.0161,0.0167,0.0167,0.0159,0.0161,0.0136,0.0126,0.0107,0.0091,0.0092,0.0068,0.0066,0.0065,0.0052,0.006,0.0032,0.0028,0.0008,0.0031,-0.0018,-0.0023,0.0025,0.0024,0.0023,0.0023,0,0,0.0178,0.0188,0.019,0.0205,0.0188,0.0188,0.0187,0.018,0.019,0.0156,0.0166,0.0153,0.0134,0.0133,0.0115,0.0097,0.0067,0.0066,0.0064,0.0016,-0.0002,-0.0012,-0.0019,0.0059,0.0059,0.0059,-0.0044,0,0.0209,0.0242,0.0234,0.0265,0.0281,0.0253,0.0257,0.0246,0.0232,0.0228,0.0199,0.0203,0.0163,0.0166,0.0139,0.0087,0.0058,0.0093,-0.0011,-0.0014,-0.003,-0.0022,0.0058,-0.0047,-0.0049,-0.005,-0.005,0,0.0241,0.0261,0.0301,0.0324,0.0329,0.0339,0.0348,0.0348,0.0331,0.0322,0.0309,0.0277,0.0247,0.0212,0.0118,0.014,0.0073,0.0024,0.0019,-0.0004,-0.0032,-0.007,-0.006,-0.0059,-0.0058,-0.0058,-0.0057,0,0.0277,0.0309,0.0348,0.0354,0.0369,0.0383,0.0388,0.0381,0.04,0.0385,0.0394,0.034,0.0322,0.0229,0.0117,0.0116,0.0003,-0.001,-0.0085,-0.0088,-0.0067,-0.0067,-0.0074,-0.0074,-0.0073,-0.0073,-0.0073,0,0.0312,0.0344,0.0372,0.0392,0.0443,0.0432,0.048,0.0473,0.0482,0.0515,0.045,0.0456,0.0327,0.0244,0.013,0.0002,0.0008,-0.0084,-0.0109,-0.0051,-0.0048,-0.0073,-0.0071,-0.0077,-0.0076,-0.0075,-0.0075,0,0.0344,0.036,0.041,0.0444,0.0462,0.0497,0.0547,0.0579,0.0575,0.0612,0.0611,0.0543,0.0429,0.0283,0.0131,0.0033,-0.0094,-0.0139,-0.0083,-0.0103,-0.0182,-0.0177,-0.0241,-0.0242,-0.0243,-0.0243,-0.0244,0,0.0361,0.0391,0.0455,0.0494,0.0514,0.0569,0.0607,0.0626,0.0666,0.0667,0.0688,0.0594,0.0526,0.03,0.0138,-0.0092,-0.0116,-0.0196,-0.0178,-0.0177,-0.0196,-0.019,-0.0184,-0.0245,-0.0246,-0.0246,-0.0246,0,0.0394,0.0418,0.0461,0.0543,0.0598,0.0666,0.0723,0.0762,0.078,0.0781,0.076,0.0637,0.0507,0.0316,0.0135,-0.0025,-0.0154,-0.0206,-0.0205,-0.0189,-0.0184,-0.02,-0.0193,-0.0249,-0.0249,-0.0248,-0.0248,0,0.0418,0.0454,0.0513,0.0586,0.0661,0.0733,0.0764,0.0806,0.084,0.0835,0.0827,0.0677,0.0593,0.035,0.0186,0.002,-0.0022,-0.0076,-0.0082,-0.0081,-0.0004,0.0027,0.0006,0,0,0,0,0,0.0436,0.0479,0.055,0.0628,0.0705,0.075,0.0827,0.0851,0.0873,0.0871,0.0853,0.073,0.0488,0.0388,0.0222,0.0153,-0.0065,-0.005,-0.0133,-0.0266,-0.0263,-0.02,0,0,0,0,0,0,0.0445,0.0511,0.0549,0.0649,0.0709,0.0795,0.0846,0.0865,0.0868,0.0865,0.0747,0.0682,0.0453,0.0585,0.0218,0.0166,0.0089,-0.0162,-0.0166,-0.0268,-0.0265,-0.0262,-0.0196,0,0,0,0,0]}]]